Погода Моржовец Остров

Погода Моржовец Остров : погода сейчас, прогноз погоды и архив. Всё, что Вы хотите узнать о погоде Моржовец Остров!

Поиск расширенной информации на нашем сайте:

Другие новости

Новости СМИ2

Главная страница сайта

Новости сайта

03.07.2017

Напоминаем, что на нашем специализированном сайте Метеоцентр.Азия вы можете получить высокодетализированные автоматические прогнозы погоды по пунктам России, СНГ и мира в авиационном формате (включающие направление и скорость ветра, видимость, явления погоды, количество и форму облачности, нижнюю и верхнюю границу облачности).


Погода Моржовец Остров - сегодня

Время (UTC), дата Ветер
(°,м/с) 
Видим.   Явления Облачность Т
(°С)
Тd
(°С)
f(%) Тe
(°С)
Pmin
(гПа)
dP
(гПа)
Po
(мм)
O2
(г/м3)
Тmin Tmax R s Состояние
почвы
00 14.10.17 070 (В) н/о    н/о 
+4.9 +4.9 100 +3  1014.7  0.1  760  300           
03 14.10.17 070 (В) н/о    н/о 
+4.6 +4.5 99 +2  1014.9  0.3  760  300           
09 14.10.17 090 (В) н/о    н/о 
+4.1 +3.5 96 +1  1015.3  760  301           
15 14.10.17 080 (В) н/о    н/о 
+3.5 +2.6 94 +1  1014.4  -0.5  759  302           
18 14.10.17 090 (В) н/о    н/о 
+3.2 +2 92 1013.4  -0.9  759  302           
21 14.10.17 080 (В) н/о    н/о 
+2.8 +2.4 97 1011.9  -1.4  758  302           
03 15.10.17 100 (В) н/о    н/о 
+4.1 +3.4 95 +1  1008.7  -1.2  755  299           
06 15.10.17 090 (В) н/о    н/о 
+4 +3.4 96 +1  1008.5  -0.3  755  299           
09 15.10.17 090 (В) н/о    н/о 
+3.9 +2.9 93 +1  1008.8  0.3  755  300           
15 15.10.17 080 (В) н/о    н/о 
+3.3 +2.7 96 1010.1  0.9  756  301           
18 15.10.17 080 (В) н/о    н/о 
+3.5 +3.1 97 +1  1010.2  0.1  756  300           
21 15.10.17 100 (В) н/о    н/о 
+3.7 +3.4 98 +1  1010.2  756  300           
03 16.10.17 090 (В) н/о    н/о 
+3.5 +3.1 97 +3  1010  -0.2  756  300           
06 16.10.17 090 (В) н/о    н/о 
+3.6 +3 96 +2  1009.1  -0.9  755  300           
09 16.10.17 140 (ЮВ) н/о    н/о 
+4 +3.1 94 +3  1007.8  -1.2  755  299           
12 16.10.17 150 (ЮВ) н/о    н/о 
+4 +3.6 97 +2  1006  -1.9  753  298           
15 16.10.17 160 (Ю) н/о    н/о 
+4.1 +3.8 98 +2  1002.8  -3.1  751  297           
18 16.10.17 190 (Ю) н/о    н/о 
+4.4 +4.1 98 +2  999.5  -3.3  748  296           
21 16.10.17 160 (Ю) н/о    н/о 
+4.7 +4.1 96 +1  995.1  -4.4  745  294           
00 17.10.17 140 (ЮВ) 12{16}  н/о    н/о 
+4.4 +3.7 95 990.4  -4.6  741  293           
03 17.10.17 150 (ЮВ) 11{18}  н/о    н/о 
+4.3 +3.4 94 987.6  -2.8  739  293           
06 17.10.17 140 (ЮВ) 8{15}  н/о    н/о 
+3.7 +2.8 94 986.3  738  293           
09 17.10.17 140 (ЮВ) н/о    н/о 
+3.7 +3.1 96 +1  986.7  0.4  739  293           
12 17.10.17 080 (В) н/о    н/о 
+3.8 +3.4 97 +3  987.7  739  293           
15 17.10.17 040 (СВ) н/о    н/о 
+3.3 +3.3 100 +3  988.5  0.8  740  294           
Время (UTC), дата Ветер
(°,м/с) 
Видим.   Явления Облачность Т
(°С)
Тd
(°С)
f(%) Тe
(°С)
Pmin
(гПа)
dP
(гПа)
Po
(мм)
O2
(г/м3)
Тmin Tmax R s Состояние
почвы

Для получения пояснительной информации подведите курсор к названию столбца.

ПОГОДА Моржовец Остров - архив

Всё, что Вы хотите узнать о погоде Моржовец Остров - удобно и подробно!

Выберите нужную дату (начиная с 1 января 2015* года) и нажмите кнопку "Найти".
Будут отображены архивные сводки погоды по пункту Моржовец Остров, начиная с указанной даты.


Отображать данные в формате CSV (для использования в таблицах Excel)


Внимание! Наш архив погоды предназначен исключительно для личного некоммерческого использования в познавательных целях. Если Вам необходимы официальные справки о состоянии погоды (для производственных, юридических, коммерческих и т.п. целей), обращайтесь в органы Росгидромета.

*Примечание: данная дата относится к архиву по метеостанциям СССР (Россия, СНГ, Балтия).
Архив по метеостанциям Зарубежной Европы и Азии (кроме Китая) хранится 10 дней, по другим регионам земного шара (Китай, Африка, Америка, Австралия, Океания) - 1 день.

Моржовец Остров - район местоположения метеостанции


Название, широта, долгота, высота метеостанции:
Моржовец Остров 66.8°ш. 42.6°д. 15 м над ур. моря [Российская Федерация]

Дополнительная информация

В oтличие oт бoльшинства пoгoдных сайтoв мы публикуем пoдрoбную метеoинфoрмацию в детальнoм прoфессиoнальнoм фoрмате.

Характеристики температуры и влажнoсти вoздуха измеряются на высoте 2 м в тени вдали oт зданий и деревьев.
Скoрoсть ветра измеряется на высoте 10 м (на урoвне рoста челoвека скoрoсть ветра ниже в 1.5-2 раза). Если метеoстанция нахoдится в гoрoде или в лесу, тo скoрoсть ветра занижена на 2-4 м/с пo сравнению с oткрытым местoм. Скoрoсть ветра над акватoриями крупных рек и oзёр, а также на вершинах хoлмoв на 2-5 м/с выше, чем в oбычных услoвиях.
Атмoсфернoе давление в разных тoчках местнoсти мoжет значительнo oтличаться oт давления на метеoстанции, в зависимoсти oт услoвий рельефа (при пoдъёме на 10 м давление пoнижается примернo на 1 мм рт.ст.).